Weather Roundup
Issued by NWS Springfield, MO

Home | Current Version | Previous Version | Text Only | Print | Product List | Glossary On
Versions: 1 2 3 4 5 6 7 8 9 10 11 12 13 14 15 16 17 18 19 20 21 22 23 24 25 26 27 28 29 30 31 32 33 34 35 36 37 38 39 40 41 42 43 44 45 46 47 48 49 50
000
NZUS99 KSGF 290607
HRRSGF

HOURLY WEATHER
NATIONAL WEATHER SERVICE SPRINGFIELD MO
100 AM CDT SUN MAY 29 2016

......SGF CWA......

CITY           SKY/WX    TMP DP  RH WIND       PRES   REMARKS
SPRINGFIELD    CLEAR     67  61  81 W5        30.06R
6HR MIN TEMP:  63; 6HR MAX TEMP:  78;

JOPLIN         CLEAR     65  63  93 SE3       30.06R
6HR MIN TEMP:  65; 6HR MAX TEMP:  77;

WEST PLAINS    CLEAR     68  64  87 W3        30.08R
6HR MIN TEMP:  68; 6HR MAX TEMP:  78;

ROLLA          CLOUDY    66  63  90 SW7       30.04R
6HR MIN TEMP:  64; 6HR MAX TEMP:  75; 6HR PCP: TRACE;


......SURROUNDING SGF CWA......

CITY           SKY/WX    TMP DP  RH WIND       PRES   REMARKS
CHANUTE        CLEAR     64  60  87 S5        30.04R
PARSONS        CLEAR     62  61  96 CALM      30.05R
COFFEYVILLE    CLEAR     66  64  93 S3        30.04R
EMPORIA        CLEAR     64  59  83 SW6       30.04R
GROVE OK       CLEAR     64  64 100 CALM      30.07R FOG
ROGERS AR        N/A     65  62  90 CALM      30.09R
SILOAM SPRINGS PTCLDY    63  55  77 CALM      30.08R
HARRISON AR    MOCLDY    67  64  90 CALM      30.08R
NEAR YELLVILLE CLEAR    N/A N/A N/A SW6       30.03R

......KANSAS AND MISSOURI......

CITY           SKY/WX    TMP DP  RH WIND       PRES   REMARKS
KANSAS CTY INT CLEAR     62  58  86 SW6       30.02R
DOWNTOWN KC    CLEAR     67  60  78 SW5       30.01R
COLUMBIA       CLEAR     67  62  84 SW6       30.03R
SEDALIA        CLEAR     66  61  84 SW6       30.05R
ST JOSEPH      CLEAR     64  60  87 SE3       30.00R
ST LOUIS       PTCLDY    72  57  59 SW7       30.02R
SPIRIT OF STL  PTCLDY    67  59  75 W3        30.01R
KIRKSVILLE     CLEAR     65  59  81 SW8       30.00S
WICHITA        CLEAR     67  58  72 CALM      30.04R
TOPEKA           N/A     62  59  90 CALM      30.02R
OLATHE         CLEAR     62  59  90 CALM      30.04R

......TENNESSEE......

CITY           SKY/WX    TMP DP  RH WIND       PRES   REMARKS
MEMPHIS        CLEAR     72  68  87 S7        30.05S
NASHVILLE      CLOUDY    68  62  81 S3        30.11R

......ARKANSAS.......

CITY           SKY/WX    TMP DP  RH WIND       PRES   REMARKS
FAYETTEVILLE   PTCLDY    62  62 100 S6        30.09R
FT SMITH       CLEAR     72  65  78 CALM      30.04S
LITTLE ROCK    CLEAR     72  67  84 CALM      30.06R

......OKLAHOMA.......

CITY           SKY/WX    TMP DP  RH WIND       PRES   REMARKS
TULSA          CLEAR     69  66  90 SE3       30.01S
PONCA CITY     CLEAR     65  61  87 CALM      30.03R
MCALESTER      CLEAR     72  68  87 S5        30.06R
OKLAHOMA CITY  PTCLDY    70  67  90 S8        30.04R

......IOWA............

CITY           SKY/WX    TMP DP  RH WIND       PRES   REMARKS
DES MOINES     CLEAR     63  55  75 W12       29.91F
QUAD CITIES    MOCLDY    69  59  70 S8        29.94S

......ILLINOIS........

CITY           SKY/WX    TMP DP  RH WIND       PRES   REMARKS
QUINCY         CLEAR     66  60  81 S6        30.00R
CHICAGO        MOCLDY    67  61  81 SW9       29.96S



USA.gov is the U.S. government's official web portal to all federal, state and local government web resources and services.